星链-1294 (STARLINK-1294 )

导读

STARLINK-1294是美国太空探索技术公司(SpaceX)星链卫星星座的一员,于2020年4月22日发射升空,属于星链项目首批部署的批量卫星之一。星链项目旨在构建全球卫星互联网星座,该卫星承担为全球偏远地区、海洋空域提供低延迟宽带互联网接入服务的任务,运行于近地轨道,是SpaceX卫星互联网组网建设的重要组成部分。

基本信息
目录编号:
45551
目录名称:
STARLINK-1294
国际标识:
2020-025W
轨道中心:
EARTH
卫星名称:
星链-1294
卫星全名:
星链-1294 (STARLINK-1294 )
卫星状态:
已陨落 最后检测时间 2026-03-03
发射日期:
2020-04-22 UTC
国别 :
美国 (US)
星等 :
--
轨道信息
数据来源 国际轨道数据
星历时间: 2026-03-03T10:18:06+0800
轨道信息已过期107天
半长轴: 6528.745km
偏心率: 0.0003065
轨道倾角: 53.015°
近地点辐角 236.378°
升交点赤经 7.436°
平近点角 123.697°
近地点: 148.606km
远地点: 152.61km
周期: 87.499分钟
每日圈数: 16.457286
详细信息
固有亮度:
5
最大亮度:
2.5
卫星平台:
Starlink V1.0
覆盖范围:
全球
运营商:
太空探索技术公司
运营商所在国:
美国
制造商(研发单位):
太空探索技术公司
制造商所在国:
美国
使用方式:
暂无
卫星简介
星链(Starlink)计划是由太空探索技术公司(SpaceX)提出的一个巨型低轨卫星互联网星座项目,计划在2019年至2024年间在太空搭建由约1.2万颗卫星组成的“星链”网络,其中1584颗将部署在地球上空550千米处的近地轨道,并从2020年开始工作。该卫星仍在工作。